Regional Weather Roundup
Issued by NWS

Home | Current Version | Previous Version | Graphics & Text | Print | Product List | Glossary On
Versions: 1 2 3 4 5 6 7 8 9 10 11 12 13 14 15 16 17 18 19 20 21 22 23 24 25 26 27 28 29 30 31 32 33 34 35 36 37 38 39 40 41 42 43 44 45 46 47 48 49 50
000
ASUS45 KTFX 180404
RWRMT
MONTANA HOURLY WEATHER ROUNDUP
NATIONAL WEATHER SERVICE GREAT FALLS MT
1004 PM MDT WED SEP 17 2014

NOTE: "FAIR" INDICATES FEW OR NO CLOUDS BELOW 12000 FEET WITH NO
SIGNIFICANT WEATHER AND/OR OBSTRUCTIONS TO VISIBILITY.

* THESE STATIONS ARE NOT UNDER NWS QUALITY CONTROL. THEY DO NOT
   REPORT WEATHER SUCH AS PRECIPITATION OR FOG.

MTZ001>007-043-180500-
WEST OF THE DIVIDE
CITY           SKY/WX    TMP DP  RH WIND       PRES   REMARKS
KALISPELL      MOCLDY    57  52  83 CALM      29.74S
MISSOULA       MOCLDY    66  48  52 SE3       29.78S
BUTTE          PTCLDY    55  39  55 S5        29.98S
MULLAN PASS    CLOUDY    63  41  45 SW3       29.93F
* ESSEX        N/A       58  50  75 SE4        N/A
* LINCOLN      N/A       59  46  62 NE2        N/A
* LOOKOUT PASS N/A       63  46  54 N1         N/A
* RONAN APT    CLOUDY    61  52  72 N/A        N/A
* THOMP F APT  CLOUDY    64  36  35 NE5G10     N/A
$$

MTZ008-052>055-180500-
SOUTHWEST MONTANA
CITY           SKY/WX    TMP DP  RH WIND       PRES   REMARKS
BOZEMAN        PTCLDY    64  45  50 S12       29.91F
DILLON         CLEAR     57  39  51 SW7       29.94F
W YELLOWSTONE  PTCLDY    46  41  83 SW3       30.09S
* THREE FORKS  PTCLDY    59  59 100 N/A        N/A
* BOULDER HILL N/A       63  35  35 S6         N/A
* MONIDA PASS  N/A       56  36  47 N1         N/A
* RAYNOLDS PAS N/A       55  39  55 S4         N/A
$$

MTZ009>010-012-014-046-048-049-054-180500-
EAST SLOPES AND CENTRAL MONTANA
CITY           SKY/WX    TMP DP  RH WIND       PRES   REMARKS
CUT BANK       CLOUDY    63  46  54 NW3       29.78S
GREAT FALLS    CLOUDY    66  48  52 S9        29.77F
HELENA         CLOUDY    70  52  53 CALM      29.82F
MALMSTROM AFB  CLOUDY    68  50  53 SW12      29.78F
* CONRAD       MOCLDY    61  54  78 N/A        N/A
* EAST GLACIER N/A       63  45  52 NW4        N/A
* MONARCH      N/A       69  36  30 SW11G16    N/A
* PENDROY      N/A       64  51  63 W1G11      N/A
* ROGERS PASS  N/A       59  41  51 NW3        N/A
* SAINT MARY   N/A       56  46  69 S3         N/A
* SWEET GRASS  N/A       67  45  45 SW9        N/A
$$

MTZ011-013-016-021-035-040-045-047-050-051-180500-
NORTH CENTRAL MONTANA
CITY           SKY/WX    TMP DP  RH WIND       PRES   REMARKS
HAVRE          PTCLDY    63  54  73 NE5       29.72F
LEWISTOWN      CLOUDY    66  50  56 SE6       29.84F
* CHESTER      N/A       69  45  42 SE5        N/A
* DENTON       N/A       67  52  59 SW4G9      N/A
* JUDITH GAP   N/A       60  46  60 SW7        N/A
* LOMA         N/A       71  51  49 NE11       N/A
$$

MTZ017>020-022>027-061-062-180500-
NORTHEAST MONTANA
CITY           SKY/WX    TMP DP  RH WIND       PRES   REMARKS
GLASGOW        CLEAR     63  46  54 E15       29.80F
GLENDIVE       PTCLDY    61  48  62 SE7       29.90S
JORDAN         MOCLDY    64  52  65 E3        29.81F
SIDNEY         PTCLDY   N/A N/A N/A S7        29.90F
WOLF POINT     PTCLDY    61  46  58 E6        29.84F
* BEAVER HILL  N/A       59  49  70 SE17G24    N/A
* CIRCLE       N/A       60  49  67 N/A        N/A
* LINDSAY DVD  N/A       57  47  69 E8         N/A
* NAVAJO       N/A       60  43  54 SE8G16     N/A
* SACO         N/A       69  50  51 E17G22     N/A
$$

MTZ028>042-056>058-180500-
SOUTHCENTRAL AND SOUTHEAST MONTANA
CITY           SKY/WX    TMP DP  RH WIND       PRES   REMARKS
BAKER          PTCLDY    57  52  83 E9        29.94S
BILLINGS       MOCLDY    68  52  57 SW5       29.90S
LIVINGSTON     MOCLDY    61  43  52 W3        29.93S
MILES CITY     PTCLDY    68  52  57 S10       29.84F
* LAUREL APT   MOCLDY    66  45  47 N/A        N/A
* ROUNDUP APT  PTCLDY    66  50  56 SE5        N/A
* ALZADA       N/A       63  50  63 E10        N/A
* HYSHAM       N/A       71  44  38 W27G38     N/A
* LAME DEER    N/A       70  47  44 SE6        N/A
* REED POINT   N/A       62  53  73 E2         N/A
* ROSCOE HILL  N/A       68  35  30 S9G14      N/A
$$

REGIONAL REPORTS...DAKOTAS
CITY           SKY/WX    TMP DP  RH WIND       PRES   REMARKS
WILLISTON      CLEAR     63  45  52 SE3       29.91S
DICKINSON      CLEAR     55  46  72 SE12      29.94S
BEACH          N/A       54  50  86 SE9       29.93F
CROSBY         CLEAR     48  48 100 E7        29.93F
TIOGA          CLEAR     54  54 100 SE13      29.97F
WATFORD CITY   CLEAR     54  45  72 SE7       29.90F
BISMARCK       CLEAR     54  48  80 NE6       29.99R
GRAND FORKS    CLEAR     48  43  83 NE6       30.05S
FARGO          CLEAR     52  48  86 NE3       30.02R
BUFFALO SD     PTCLDY    59  52  78 SE7       29.90R
RAPID CITY     CLEAR     63  52  68 CALM      29.99R
$$

REGIONAL REPORTS...WYOMING/IDAHO/WASHINGTON
CITY           SKY/WX    TMP DP  RH WIND       PRES   REMARKS
GILLETTE       MOCLDY    66  46  49 S6        29.97R
SHERIDAN       CLOUDY    68  45  44 E5        29.94R
CODY           PTCLDY   N/A N/A N/A N/A        N/A
YELLOWSTONE LA PTCLDY    46  37  71 NW3       30.21F
SALMON         PTCLDY    55  48  77 CALM      29.86F
MULLAN PASS    CLOUDY    63  41  45 SW3       29.93S
SAND POINT     MOCLDY    55  52  90 CALM      29.71S
SPOKANE        MOCLDY    70  41  35 CALM      29.69S

$$




USA.gov is the U.S. government's official web portal to all federal, state and local government web resources and services.